This demonstration page uses our WeatherBlox Daily Observations layout. Learn more.

Left ArrowRight Arrow

34.74481, -87.66753

Hourly Observations for May 16, 2020

Temp ( °F °C ) Dew Point ( °F °C ) Humidity (%) Winds ( mph kmh ) Pressure ( in mb ) Visibility ( mi km ) Precip ( " mm )
12:21 am 00:21 Mostly Cloudy with Fog 68 20 66 18.9 93 93 Calm 29.97 1015 1 1 0.00 0.00
12:48 am 00:48 Mostly Cloudy with Fog 68 20 66 19 94 94 Calm 29.97 1015 0 0 0.00 0.00
12:49 am 00:49 Mostly Cloudy with Fog 68 20 66 18.9 93 93 Calm 29.96 1015 0 0 0.00 0.00
12:57 am 00:57 Mostly Cloudy with Fog 67 19.4 65 18.3 93 93 ESE 3 6 29.97 1015 1 1 0.00 0.00
1:53 am 01:53 Cloudy with Mist and Fog 68 20 66 18.9 93 93 E 3 6 29.97 1015 1 2 0.00 0.00
2:09 am 02:09 Mostly Cloudy with Mist and Fog 68 20 66 18.9 93 93 Calm 29.98 1015 1 1 0.00 0.00
2:17 am 02:17 Mostly Cloudy with Mist and Fog 68 20 66 18.9 93 93 Calm 29.98 1015 1 2 0.00 0.00
2:27 am 02:27 Partly Cloudy with Mist and Fog 68 20 66 18.9 93 93 E 3 6 29.98 1015 3 5 0.00 0.00
2:53 am 02:53 Mostly Cloudy with Mist and Fog 68 20 66 18.9 93 93 Calm 29.97 1015 6 10 0.00 0.00
3:53 am 03:53 Clear with Mist and Fog 67 19.4 65 18.3 93 93 ESE 6 9 29.96 1015 6 10 0.00 0.00
4:53 am 04:53 Mostly Cloudy 67 19.4 64 17.8 91 91 Calm 29.96 1015 7 11 0.00 0.00
5:53 am 05:53 Cloudy 67 19.4 65 18.3 93 93 E 5 7 29.96 1015 9 14 0.00 0.00
6:53 am 06:53 Cloudy 68 20 65 18.3 90 90 E 5 7 29.98 1015 10 16 0.00 0.00
7:53 am 07:53 Cloudy 71 21.7 65 18.3 81 81 ESE 3 6 29.98 1015 10 16 0.00 0.00
8:53 am 08:53 Sunny 74 23.3 64 17.8 71 71 SE 7 11 29.99 1016 10 16 0.00 0.00
9:53 am 09:53 Sunny 77 25 63 17.2 62 62 SE 6 9 30.00 1016 10 16 0.00 0.00
10:53 am 10:53 Sunny 81 27.2 64 17.8 57 57 SSE 9 15 29.98 1015 10 16 0.00 0.00
11:53 am 11:53 Sunny 84 28.9 64 17.8 51 51 SE 9 15 29.97 1015 10 16 0.00 0.00
12:53 pm 12:53 Mostly Cloudy 84 28.9 63 17.2 49 49 ESE 6 9 29.96 1014 10 16 0.00 0.00
1:53 pm 13:53 Partly Cloudy 85 29.4 63 17.2 48 48 SE 3 6 29.94 1014 10 16 0.00 0.00
2:53 pm 14:53 Mostly Sunny 87 30.6 60 15.6 40 40 SE 8 13 29.92 1013 10 16 0.00 0.00
3:53 pm 15:53 Cloudy 85 29.4 62 16.7 46 46 SE 7 11 29.89 1012 10 16 0.00 0.00
4:53 pm 16:53 Cloudy with Rain 80 26.7 62 16.7 54 54 W 6 9 29.89 1012 9 14 0.01 0.25
5:53 pm 17:53 Cloudy 82 27.8 64 17.8 55 55 SSE 7 11 29.87 1012 10 16 0.00 0.00
6:53 pm 18:53 Sunny 81 27.2 65 18.3 58 58 SSE 3 6 29.88 1012 10 16 0.00 0.00
7:53 pm 19:53 Clear 78 25.6 63 17.2 60 60 SE 6 9 29.88 1012 10 16 0.00 0.00
8:53 pm 20:53 Clear 75 23.9 63 17.2 66 66 ESE 5 7 29.89 1012 10 16 0.00 0.00
9:53 pm 21:53 Clear 73 22.8 64 17.8 74 74 ESE 5 7 29.91 1013 10 16 0.00 0.00
10:53 pm 22:53 Clear 72 22.2 63 17.2 73 73 ESE 3 6 29.90 1013 10 16 0.00 0.00
11:53 pm 23:53 Clear 71 21.7 62 16.7 73 73 E 5 7 29.89 1012 10 16 0.00 0.00

Powered by AerisWeather